STARLINK-3088, 49163

Orbit data source: Space-Track

STARLINK-3088, 49163 is a payload satellite owned by SpaceX/Seattle (US) in LEO that was launched on Tue, 14 Sep 2021 UTC via an FALCON 9 launch vehicle from the Air Force Western Test Range (AFWTR). Payload-class satellites include a variety of spacecraft equipped with specific instruments for various scientific and technological missions. These include communications satellites like Starlink; space stations such as the ISS; scientific satellites like the Hubble; Earth observation satellites from companies like Planet Labs, Umbra, and HawkEye 360; GPS; miniature CubeSats for education and research; and military/defense satellites.

Loading next visibility...
Identifier
49163, 2021-082AK
Orbit
LEO
Country
Flag of USUS
Related business
Manufacturer
SpaceX/Seattle
Mission
Operational Commercial Communications
Bus & Motor
STARLINK, Unknown motor
Mass
297 kg wet, ~275 kg dry
Launch date (UTC)
2021-09-14 (5 years ago)
Launch vehicle
FALCON 9
Launch site
Air Force Western Test Range (AFWTR)
Object type
Payload
Rocket body
Debris
Shape & HBR
Box + 1 Pan, 10.1 m
Radar Cross Section
13.562 m², Large (>1 m²)

Expand to show TLE details & history
Last TLE update: 1 week ago

TLE from 1 week ago
0 STARLINK-3088
1 49163U 21082AK  26155.08130429 -.00000035  00000-0  49153-5 0  9998
2 49163  70.0002  57.6997 0002937 256.9318 103.1513 14.97521835260548
Epoch: 2026-06-04T01:57Z
TLE epoch observation values (Epoch: 2026-06-04T01:57:04.690Z)
Latitude
-0.00003°
Longitude
135.89946°
Altitude
577.444 km
Speed
7.572 km/s
True Right ascension
03h 50m 47s
True Declination
0° 00' 00"
Sunlit
Object was in daylight at epoch
Visualization orbit readout
Latitude
Unknown
Longitude
Unknown
Altitude
Unknown
Speed
Unknown
Apparent Right ascension
Unknown
Apparent Declination
Unknown
Sunlit
N/A
Visualization observer readout
Local Sidereal Time
22:36:02
Azimuth
Unknown
Elevation
Unknown
Doppler factor
Unknown
Orbital elements
Apogee altitude
574.547 km
Perigee altitude
570.464 km
Semi-major axis
6,950.642 km
Eccentricity
0.00029
Inclination
70.0002°
RAAN
57.6997°
Arg. of periapsis
256.9318°
True anomaly
103.18407°
Mean anomaly
103.1513°
Eccentric anomaly
103.16769°
Mean motion
3.74547 °/min
Orbital period
96.12 mins
BSTAR
0.0000049153
Loading maneuver chart data...
Computing Atmospheric mass density...
Loading historical data...
Loading historical data...
Loading historical data...
Loading historical data...
Loading historical data...
Loading historical data...
Loading historical data...

Documentation

Showing up to 5 results
|